Wind_Speed
44 44 45 46 46 47 47 47 48 48 48 48 50 50 50 50 50 50 50 50 51 50 50 49 47 47 47 47 49 49 48 47 46 45 44 44 44 43
44 44 44 45 45 45 45 46 47 48 48 48 49 50 50 49 49 49 49 49 48 48 47 47 47 47 47 47 47 47 47 47 46 46 44 43 42 42
43 43 43 44 44 44 45 46 47 48 48 46 47 48 48 48 48 48 48 48 47 47 46 45 45 46 46 46 46 46 46 45 45 44 43 42 41 41
42 43 43 43 44 44 44 45 46 46 46 45 44 45 46 46 46 46 46 46 46 45 44 44 44 44 44 44 44 43 43 42 42 43 42 41 40 39
42 42 42 43 43 43 43 43 44 44 43 42 42 42 43 43 43 43 43 43 41 43 44 44 44 43 41 41 41 40 40 40 41 42 41 40 39 39
41 40 41 42 42 42 42 42 42 42 41 40 40 41 41 40 40 39 40 40 40 40 41 42 42 40 39 39 38 37 37 36 37 38 39 39 39 38
41 40 40 40 40 40 41 40 40 39 39 39 39 39 39 38 38 38 37 37 37 37 37 38 38 37 37 36 36 36 35 35 35 36 36 36 37 37
39 39 39 38 38 38 38 38 38 37 37 37 37 36 35 35 34 34 35 35 35 35 35 35 35 34 33 33 33 34 33 34 34 35 36 35 35 36
37 37 36 36 35 35 35 35 35 35 35 35 34 32 32 32 32 31 32 33 33 33 33 32 31 31 30 30 30 31 31 31 31 32 34 34 34 34
34 33 33 33 33 33 33 33 33 32 32 32 31 30 30 30 30 30 30 30 30 30 29 29 28 28 28 27 27 27 28 29 30 30 31 32 32 32
32 31 31 31 31 31 31 30 30 29 29 30 30 29 28 28 28 28 28 27 27 27 27 26 25 25 25 25 25 25 25 27 28 28 28 29 29 29
31 31 30 30 29 29 29 29 28 28 28 27 27 27 26 27 27 27 27 26 26 25 24 23 23 23 22 23 24 25 25 26 27 27 27 28 28 28
31 30 29 29 29 28 28 28 27 27 26 26 26 26 26 25 25 25 25 24 23 22 22 22 21 22 22 21 22 23 24 24 25 26 25 26 26 27
28 28 28 28 28 27 28 27 27 26 25 24 24 24 24 23 23 22 22 22 21 21 21 20 20 20 20 20 19 20 21 21 22 23 24 23 24 24
26 26 26 26 26 25 26 26 25 24 22 22 22 22 23 22 22 21 20 19 19 19 19 19 19 19 19 18 18 18 18 18 19 19 21 21 22 22
24 24 24 24 24 23 23 22 21 20 20 20 19 20 20 20 19 18 17 17 17 16 16 16 16 16 16 15 15 14 15 15 15 17 18 19 19 19
23 23 23 22 21 20 19 19 18 18 17 17 18 18 17 17 15 14 15 15 15 15 15 14 14 14 13 13 13 13 13 13 13 14 15 15 16 16
22 21 21 19 18 17 17 17 17 16 16 16 15 15 15 14 13 13 13 13 13 13 13 12 12 12 12 12 11 11 11 11 12 13 14 14 14 14
20 19 18 17 16 15 15 15 15 15 14 14 13 13 12 12 12 11 11 11 11 12 12 12 12 11 11 11 10 10 10 10 11 12 12 12 12 13
16 16 15 15 15 14 14 14 13 12 12 11 11 11 10 10 10 10 10 10 10 10 10 10 10 10 10 10 10 9 9 10 10 11 12 12 12 12
14 13 13 13 13 13 12 11 11 10 9 9 9 9 9 9 9 9 8 8 7 7 7 8 8 9 9 9 9 9 9 9 9 10 11 12 12 12
13 12 11 11 11 11 10 10 9 8 8 8 7 7 7 7 7 7 7 7 6 6 5 5 6 6 7 6 7 8 9 9 9 9 10 10 10 11
11 10 9 9 9 9 9 9 8 8 8 7 6 6 6 6 6 6 6 5 5 4 4 4 4 4 4 4 4 5 6 7 7 8 8 8 8 8
Wind_Direction
273 275 274 273 273 273 274 274 274 273 272 272 273 273 274 273 273 272 272 272 274 274 273 273 274 274 274 272 269 267 265 264 265 266 266 266 265 265
274 276 276 274 274 274 273 274 275 275 272 272 272 273 274 273 273 272 273 275 274 274 273 273 273 274 274 273 272 268 264 264 264 264 264 264 264 263
275 277 277 276 274 273 273 274 276 275 274 272 273 274 273 273 273 273 273 273 273 273 273 274 274 274 273 273 272 269 264 262 262 261 261 262 262 262
275 276 277 277 276 274 273 275 276 275 275 274 273 273 272 273 273 273 272 272 272 272 273 274 274 275 273 272 272 270 264 261 261 260 260 260 261 261
276 276 277 277 277 275 275 276 276 274 274 274 273 273 272 273 273 273 273 274 274 273 273 274 274 274 273 271 271 268 263 260 260 259 259 259 259 260
276 276 276 276 276 275 276 277 276 275 274 274 273 274 274 273 273 273 273 273 274 274 272 274 274 274 272 271 270 266 263 260 260 260 258 257 258 258
277 278 277 276 275 275 276 276 277 275 275 275 275 275 274 273 272 272 273 274 274 273 273 274 274 273 273 271 269 266 262 262 260 259 258 256 257 257
277 278 279 277 276 276 276 277 277 276 275 275 276 276 274 273 272 272 273 274 274 273 274 273 273 273 273 271 268 266 263 262 260 258 257 257 256 257
278 279 279 279 279 279 278 277 276 275 275 275 275 275 272 272 273 274 274 274 274 274 273 273 272 271 271 270 268 266 265 262 258 256 256 257 257 257
279 279 280 281 281 280 278 278 277 276 274 273 273 272 271 271 273 274 275 274 275 275 273 271 270 268 267 268 267 265 264 260 256 255 255 255 255 255
279 279 281 282 281 280 278 278 277 275 274 272 271 269 268 271 273 274 275 275 275 274 272 270 268 266 266 268 266 264 264 260 255 253 252 252 254 255
278 279 280 282 282 279 277 276 275 274 273 272 270 268 267 269 272 273 275 274 272 271 271 269 268 267 267 267 265 264 264 261 256 253 251 250 253 254
276 278 280 280 280 278 277 275 274 273 273 273 270 268 269 269 270 271 273 273 270 269 269 270 270 268 267 269 268 265 265 262 255 250 251 251 251 253
277 277 278 279 279 279 276 275 274 273 273 271 270 268 268 271 271 269 270 269 268 266 266 268 269 269 268 269 269 267 266 262 257 252 249 251 252 253
278 278 279 281 281 279 276 275 275 273 272 271 269 267 267 269 269 268 268 266 265 262 262 265 268 269 269 272 271 268 265 262 258 252 249 249 249 249
279 280 281 281 281 280 278 274 274 271 270 271 268 266 265 266 265 263 263 263 264 264 264 265 266 266 269 270 266 263 259 257 255 249 247 247 247 249
280 280 281 280 279 278 276 272 271 271 268 269 266 263 262 263 263 261 261 264 262 260 261 263 265 266 264 262 260 260 258 254 250 245 246 248 249 250
280 279 278 277 275 274 272 272 272 270 266 265 263 261 257 256 257 259 263 261 258 257 259 260 261 263 262 257 256 254 251 249 247 244 243 244 243 243
280 278 276 273 271 270 267 267 271 272 268 263 257 252 247 248 252 256 258 256 256 258 260 261 262 262 258 252 246 246 248 248 248 248 245 244 244 246
281 279 275 271 269 268 266 264 265 265 263 256 250 245 241 245 250 252 251 252 256 259 262 262 260 257 256 251 244 243 244 245 248 248 246 245 245 248
281 281 278 273 267 263 260 256 253 254 252 245 243 239 240 243 243 242 243 246 254 259 262 264 262 257 257 253 243 239 243 246 245 243 242 246 248 250
281 280 276 271 265 257 252 244 240 239 236 235 235 235 236 237 236 237 239 243 250 256 262 269 265 257 253 247 241 238 241 246 251 251 249 250 252 249
277 275 271 267 261 252 242 235 234 233 232 230 230 230 228 231 234 235 233 236 243 247 252 255 251 246 250 252 247 244 244 247 252 253 254 254 254 253
Height
5617 5615 5614 5613 5612 5611 5611 5611 5612 5613 5615 5614 5612 5611 5610 5610 5609 5608 5607 5607 5606 5606 5605 5604 5603 5602 5602 5602 5602 5603 5605 5606 5608 5610 5611 5612 5614 5615
5605 5604 5603 5602 5601 5600 5599 5598 5598 5598 5600 5601 5599 5598 5596 5596 5595 5595 5594 5593 5593 5592 5592 5591 5590 5589 5589 5588 5588 5589 5591 5592 5594 5596 5598 5600 5601 5603
5594 5593 5591 5590 5589 5588 5587 5586 5586 5585 5585 5587 5586 5584 5583 5582 5582 5581 5581 5580 5580 5579 5579 5577 5577 5576 5575 5575 5575 5575 5576 5578 5580 5582 5584 5587 5588 5591
5582 5581 5580 5578 5577 5576 5575 5574 5573 5572 5572 5573 5573 5572 5571 5569 5569 5568 5568 5568 5567 5567 5566 5565 5564 5563 5562 5562 5561 5561 5563 5565 5567 5569 5572 5575 5577 5579
5571 5569 5568 5567 5566 5565 5564 5563 5561 5560 5559 5559 5560 5560 5559 5558 5557 5556 5556 5556 5555 5555 5554 5553 5552 5551 5550 5550 5549 5550 5551 5553 5555 5558 5560 5563 5565 5568
5559 5558 5557 5556 5555 5554 5552 5551 5550 5548 5547 5547 5548 5548 5548 5547 5546 5545 5545 5545 5544 5543 5542 5541 5540 5539 5538 5539 5539 5539 5540 5542 5544 5547 5549 5551 5554 5557
5548 5547 5546 5544 5543 5542 5541 5539 5538 5537 5536 5536 5537 5537 5537 5536 5536 5535 5535 5534 5533 5532 5531 5531 5530 5529 5528 5528 5528 5529 5531 5532 5534 5536 5538 5541 5544 5547
5538 5536 5535 5534 5532 5531 5529 5528 5526 5525 5525 5525 5526 5526 5526 5526 5525 5525 5524 5524 5525 5525 5522 5522 5520 5519 5519 5519 5519 5520 5522 5523 5525 5527 5529 5532 5534 5537
5528 5526 5525 5523 5522 5521 5519 5518 5517 5516 5515 5516 5516 5516 5516 5517 5517 5516 5515 5515 5515 5514 5513 5513 5511 5511 5510 5510 5511 5512 5513 5514 5516 5519 5521 5524 5526 5528
5518 5517 5516 5514 5513 5511 5510 5509 5508 5507 5507 5507 5508 5508 5508 5508 5508 5507 5507 5506 5506 5505 5504 5505 5504 5503 5503 5503 5503 5504 5505 5506 5508 5511 5513 5515 5518 5520
5510 5508 5507 5506 5504 5502 5501 5501 5500 5500 5499 5499 5499 5499 5499 5499 5499 5499 5499 5499 5499 5498 5497 5497 5497 5496 5497 5497 5497 5497 5498 5499 5501 5503 5505 5507 5510 5512
5501 5500 5498 5497 5495 5494 5493 5493 5493 5492 5492 5491 5491 5491 5492 5492 5492 5492 5492 5492 5491 5492 5491 5491 5490 5490 5491 5492 5491 5491 5491 5492 5494 5496 5498 5501 5503 5505
5492 5491 5490 5489 5487 5486 5486 5485 5485 5484 5484 5484 5484 5484 5485 5485 5485 5485 5485 5485 5485 5485 5485 5485 5485 5485 5485 5486 5486 5486 5486 5487 5488 5490 5492 5494 5496 5498
5484 5483 5482 5481 5480 5479 5478 5478 5477 5477 5477 5477 5477 5477 5478 5478 5478 5478 5478 5478 5479 5479 5479 5479 5480 5480 5480 5480 5481 5480 5480 5481 5482 5484 5486 5488 5490 5492
5475 5475 5474 5473 5472 5471 5471 5470 5470 5470 5470 5470 5471 5471 5471 5472 5472 5472 5472 5473 5473 5474 5474 5474 5475 5475 5475 5475 5475 5475 5476 5476 5477 5479 5481 5483 5485 5487
5468 5468 5467 5466 5465 5465 5464 5463 5463 5463 5464 5464 5465 5465 5465 5466 5467 5467 5468 5469 5469 5470 5470 5470 5470 5470 5471 5471 5471 5472 5472 5473 5473 5475 5477 5478 5480 5482
5461 5461 5460 5460 5459 5459 5458 5458 5458 5458 5458 5459 5459 5460 5460 5461 5462 5463 5464 5464 5465 5465 5466 5466 5466 5467 5467 5468 5468 5469 5469 5470 5470 5471 5473 5475 5476 5477
5455 5454 5454 5454 5454 5454 5453 5454 5454 5454 5454 5454 5455 5455 5456 5457 5458 5459 5460 5461 5461 5462 5462 5463 5463 5464 5465 5465 5466 5466 5466 5467 5467 5468 5469 5471 5473 5474
5449 5449 5449 5449 5449 5449 5449 5449 5450 5450 5450 5450 5451 5452 5453 5454 5455 5456 5457 5457 5458 5459 5459 5460 5460 5461 5462 5462 5463 5463 5464 5464 5465 5466 5466 5467 5469 5469
5444 5444 5444 5444 5444 5445 5445 5445 5446 5446 5446 5447 5448 5449 5450 5451 5452 5453 5454 5455 5455 5456 5456 5457 5457 5458 5459 5460 5460 5460 5460 5462 5462 5463 5464 5464 5465 5466
5439 5439 5439 5439 5440 5440 5441 5441 5442 5443 5443 5444 5445 5446 5448 5449 5449 5450 5451 5452 5453 5453 5454 5454 5454 5455 5456 5456 5457 5458 5458 5459 5459 5460 5461 5461 5462 5463
5436 5435 5435 5436 5436 5436 5437 5438 5439 5440 5441 5442 5443 5444 5446 5446 5447 5448 5449 5450 5451 5451 5452 5452 5452 5453 5454 5454 5455 5456 5456 5456 5457 5457 5458 5459 5459 5460
5432 5432 5432 5432 5433 5433 5434 5436 5437 5438 5440 5441 5442 5443 5444 5445 5446 5447 5448 5448 5449 5450 5450 5451 5451 5452 5452 5453 5453 5454 5454 5454 5455 5455 5456 5456 5456 5456